TimeEST,TemperatureF,Dew PointF,Humidity,Sea Level PressureIn,VisibilityMPH,Wind Direction,Wind SpeedMPH,Gust SpeedMPH,PrecipitationIn,Events,Conditions,WindDirDegrees,DateUTC
12:53 AM,61.0,57.9,90,30.23,10.0,East,5.8,-,N/A,,Clear,80,2012-11-12 05:53:00
1:53 AM,63.0,60.1,90,30.21,10.0,ENE,5.8,-,N/A,,Overcast,70,2012-11-12 06:53:00
2:53 AM,64.9,61.0,87,30.20,10.0,NE,4.6,-,N/A,,Overcast,50,2012-11-12 07:53:00
3:53 AM,64.9,62.1,90,30.21,10.0,Calm,Calm,-,0.00,,Overcast,0,2012-11-12 08:53:00
4:53 AM,64.9,62.1,90,30.21,10.0,NNE,3.5,-,0.00,,Overcast,30,2012-11-12 09:53:00
5:53 AM,63.0,60.1,90,30.21,8.0,NE,3.5,-,N/A,,Partly Cloudy,50,2012-11-12 10:53:00
7:53 AM,66.0,63.0,90,30.23,10.0,ENE,5.8,-,N/A,,Clear,60,2012-11-12 12:53:00
8:53 AM,73.9,64.9,73,30.24,10.0,East,8.1,-,0.01,,Clear,90,2012-11-12 13:53:00
9:53 AM,79.0,64.9,62,30.25,10.0,East,13.8,-,N/A,,Clear,100,2012-11-12 14:53:00
10:53 AM,82.0,63.0,52,30.24,10.0,SE,12.7,-,N/A,,Mostly Cloudy,130,2012-11-12 15:53:00
11:53 AM,82.9,63.0,51,30.22,10.0,SE,15.0,-,N/A,,Partly Cloudy,130,2012-11-12 16:53:00
12:53 PM,82.9,66.0,56,30.20,10.0,SE,12.7,21.9,N/A,,Overcast,140,2012-11-12 17:53:00
1:53 PM,80.1,64.0,58,30.18,9.0,ESE,12.7,-,N/A,,Mostly Cloudy,120,2012-11-12 18:53:00
2:53 PM,79.0,63.0,58,30.18,10.0,ESE,8.1,-,N/A,,Overcast,110,2012-11-12 19:53:00
3:53 PM,77.0,64.9,66,30.17,10.0,SE,3.5,-,N/A,,Overcast,130,2012-11-12 20:53:00
4:53 PM,75.9,64.0,67,30.17,10.0,ESE,5.8,-,N/A,,Overcast,120,2012-11-12 21:53:00
5:53 PM,73.0,63.0,71,30.17,10.0,ENE,4.6,-,N/A,,Overcast,60,2012-11-12 22:53:00
6:53 PM,73.0,63.0,71,30.18,10.0,East,3.5,-,N/A,,Overcast,90,2012-11-12 23:53:00
7:53 PM,72.0,64.0,76,30.19,10.0,ENE,4.6,-,N/A,,Overcast,70,2012-11-13 00:53:00
8:53 PM,72.0,64.9,78,30.19,10.0,ENE,5.8,-,N/A,,Overcast,60,2012-11-13 01:53:00
9:53 PM,70.0,64.9,84,30.19,10.0,ENE,5.8,-,N/A,,Mostly Cloudy,60,2012-11-13 02:53:00
10:53 PM,68.0,64.0,87,30.20,10.0,NE,5.8,-,N/A,,Clear,40,2012-11-13 03:53:00
11:53 PM,64.9,63.0,93,30.19,10.0,NNE,4.6,-,N/A,,Clear,30,2012-11-13 04:53:00